Ely, MN

11:59 AM CDT on May 26, 2017 (GMT -0500)
Ely Municipal

Weather History for KELO - December, 2013

Change the Weather History Date:

Monday, December 23, 2013

  Actual Average Record
Temperature  
Mean Temperature -16 °F -  
Max Temperature -4 °F 16 °F 35 °F (2005)
Min Temperature -27 °F 1 °F -29 °F (2004)
Degree Days  
Heating Degree Days 80    
Moisture  
Dew Point -18 °F    
Average Humidity 75    
Maximum Humidity 84    
Minimum Humidity 65    
Precipitation  
Precipitation 0.00 in - - ()
Sea Level Pressure  
Sea Level Pressure 30.33 in    
Wind  
Wind Speed 3 mph (NNE)    
Max Wind Speed 7 mph    
Max Gust Speed -    
Visibility 9 miles    
Events Snow    
Averages and records for this station are not official NWS values.
T = Trace of Precipitation, MM = Missing Value Source: NWS Daily Summary

Daily Weather History Graph

Daily Weather History Graph

Search for Another Location

Airport or City:

Trip Planner

Search our weather history database for the weather conditions in past years. The results will help you decide how hot, cold, wet, or windy it might be!

Date:

Astronomy

Dec. 23, 2013 Rise Set
Actual Time 7:54 AM CST 4:18 PM CST
Civil Twilight 7:18 AM CST 4:54 PM CST
Nautical Twilight 6:38 AM CST 5:34 PM CST
Astronomical Twilight 6:01 AM CST 6:12 PM CST
Moon 10:54 PM CST (12/23) 10:56 AM CST (12/23)
Length of Visible Light 9h 36m
Length of Day
8h 23m
Waning Gibbous, 68% of the Moon is Illuminated
Dec 23
Waning Gibbous
Dec 25
Last Quarter
Jan 1
New
Jan 7
First Quarter
Jan 15
Full

Hourly Weather History & Observations

Time (CST) Temp. Windchill Dew Point Humidity Pressure Visibility Wind Dir Wind Speed Gust Speed Precip Events Conditions
12:13 AM -5.8 °F -18.4 °F -11.2 °F 77% 30.21 in 5.0 mi North 5.8 mph - N/A Snow Light Snow
12:33 AM -5.8 °F -14.5 °F -11.2 °F 77% 30.21 in 7.0 mi North 3.5 mph - N/A Snow Light Snow
12:52 AM -7.6 °F -16.5 °F -11.2 °F 84% 30.21 in 4.0 mi North 3.5 mph - N/A Snow Light Snow
1:13 AM -7.6 °F -16.5 °F -11.2 °F 84% 30.21 in 4.0 mi North 3.5 mph - N/A Snow Light Snow
1:33 AM -7.6 °F -22.1 °F -11.2 °F 84% 30.22 in 5.0 mi NNE 6.9 mph - N/A Snow Light Snow
1:52 AM -7.6 °F -20.6 °F -14.8 °F 71% 30.22 in 5.0 mi NNE 5.8 mph - N/A Snow Light Snow
2:13 AM -9.4 °F -20.9 °F -14.8 °F 77% 30.23 in 10.0 mi NNE 4.6 mph - N/A   Overcast
2:32 AM -9.4 °F -20.9 °F -14.8 °F 77% 30.24 in 5.0 mi NE 4.6 mph - N/A Snow Light Snow
2:53 AM -9.4 °F -18.6 °F -14.8 °F 77% 30.24 in 10.0 mi North 3.5 mph - N/A   Mostly Cloudy
3:13 AM -9.4 °F -18.6 °F -14.8 °F 77% 30.24 in 10.0 mi North 3.5 mph - N/A   Mostly Cloudy
3:32 AM -9.4 °F -18.6 °F -14.8 °F 77% 30.25 in 7.0 mi North 3.5 mph - N/A Snow Light Snow
3:53 AM -9.4 °F -18.6 °F -14.8 °F 77% 30.25 in 7.0 mi North 3.5 mph - N/A Snow Light Snow
4:13 AM -9.4 °F - -14.8 °F 77% 30.25 in 10.0 mi Calm Calm - N/A   Overcast
4:32 AM -9.4 °F -18.6 °F -14.8 °F 77% 30.25 in 10.0 mi North 3.5 mph - N/A   Overcast
4:53 AM -9.4 °F -20.9 °F -14.8 °F 77% 30.26 in 10.0 mi North 4.6 mph - N/A   Overcast
5:13 AM -9.4 °F -18.6 °F -14.8 °F 77% 30.27 in 10.0 mi North 3.5 mph - N/A   Overcast
5:32 AM -9.4 °F -20.9 °F -14.8 °F 77% 30.27 in 10.0 mi North 4.6 mph - N/A   Overcast
5:53 AM -9.4 °F -18.6 °F -14.8 °F 77% 30.28 in 10.0 mi NNE 3.5 mph - N/A   Overcast
6:13 AM -9.4 °F -22.7 °F -14.8 °F 77% 30.28 in 10.0 mi North 5.8 mph - N/A   Overcast
6:32 AM -9.4 °F -18.6 °F -16.6 °F 71% 30.29 in 10.0 mi North 3.5 mph - N/A   Overcast
6:53 AM -11.2 °F -23.0 °F -16.6 °F 77% 30.29 in 7.0 mi North 4.6 mph - N/A   Mostly Cloudy
7:07 AM -11.2 °F -20.6 °F -16.6 °F 77% 30.30 in 10.0 mi North 3.5 mph - N/A   Scattered Clouds
7:33 AM -11.2 °F -20.6 °F -16.6 °F 77% 30.31 in 10.0 mi North 3.5 mph - N/A   Scattered Clouds
7:53 AM -11.2 °F -20.6 °F -16.6 °F 77% 30.32 in 10.0 mi North 3.5 mph - N/A   Scattered Clouds
8:13 AM -13.0 °F -25.1 °F -18.4 °F 77% 30.32 in 10.0 mi North 4.6 mph - N/A   Scattered Clouds
8:33 AM -13.0 °F -22.7 °F -18.4 °F 77% 30.33 in 10.0 mi North 3.5 mph - N/A   Mostly Cloudy
8:53 AM -13.0 °F -22.7 °F -18.4 °F 77% 30.34 in 10.0 mi North 3.5 mph - N/A   Mostly Cloudy
9:13 AM -13.0 °F -25.1 °F -18.4 °F 77% 30.35 in 10.0 mi North 4.6 mph - N/A   Overcast
9:33 AM -13.0 °F -22.7 °F -18.4 °F 77% 30.35 in 10.0 mi North 3.5 mph - N/A   Mostly Cloudy
9:53 AM -13.0 °F -22.7 °F -18.4 °F 77% 30.36 in 10.0 mi NNE 3.5 mph - N/A   Clear
10:13 AM -13.0 °F - -18.4 °F 77% 30.36 in 10.0 mi Calm Calm - N/A   Clear
10:33 AM -11.2 °F -26.4 °F -18.4 °F 70% 30.37 in 10.0 mi NE 6.9 mph - N/A   Clear
10:53 AM -11.2 °F -23.0 °F -18.4 °F 70% 30.36 in 10.0 mi NE 4.6 mph - N/A   Clear
11:12 AM -11.2 °F -23.0 °F -18.4 °F 70% 30.36 in 10.0 mi NE 4.6 mph - N/A   Clear
11:33 AM -9.4 °F -20.9 °F -18.4 °F 65% 30.35 in 10.0 mi NNE 4.6 mph - N/A   Clear
11:53 AM -9.4 °F -20.9 °F -16.6 °F 71% 30.35 in 10.0 mi NNE 4.6 mph - N/A   Clear
12:12 PM -7.6 °F -18.8 °F -16.6 °F 65% 30.35 in 10.0 mi NE 4.6 mph - N/A   Clear
12:33 PM -7.6 °F -18.8 °F -14.8 °F 71% 30.35 in 10.0 mi NE 4.6 mph - N/A   Clear
12:53 PM -5.8 °F -16.7 °F -14.8 °F 65% 30.34 in 10.0 mi NE 4.6 mph - N/A   Clear
1:12 PM -5.8 °F -16.7 °F -14.8 °F 65% 30.34 in 10.0 mi NNE 4.6 mph - N/A   Clear
1:33 PM -5.8 °F -16.7 °F -14.8 °F 65% 30.34 in 10.0 mi NE 4.6 mph - N/A   Clear
1:53 PM -5.8 °F - -13.0 °F 71% 30.34 in 10.0 mi Calm Calm - N/A   Clear
2:13 PM -5.8 °F -18.4 °F -13.0 °F 71% 30.35 in 10.0 mi NE 5.8 mph - N/A   Clear
2:33 PM -4.0 °F -12.4 °F -11.2 °F 71% 30.35 in 10.0 mi NNE 3.5 mph - N/A   Clear
2:53 PM -4.0 °F -14.6 °F -11.2 °F 71% 30.35 in 10.0 mi NE 4.6 mph - N/A   Clear
3:13 PM -4.0 °F -12.4 °F -11.2 °F 71% 30.36 in 10.0 mi NE 3.5 mph - N/A   Clear
3:33 PM -5.8 °F -14.5 °F -11.2 °F 77% 30.36 in 10.0 mi NNE 3.5 mph - N/A   Clear
3:53 PM -5.8 °F - -13.0 °F 71% 30.36 in 10.0 mi Calm Calm - N/A   Clear
4:13 PM -5.8 °F - -13.0 °F 71% 30.37 in 10.0 mi Calm Calm - N/A   Clear
4:33 PM -7.6 °F - -13.0 °F 77% 30.37 in 10.0 mi Calm Calm - N/A   Clear
4:53 PM -7.6 °F - -13.0 °F 77% 30.38 in 10.0 mi Calm Calm - N/A   Clear
5:13 PM -9.4 °F - -14.8 °F 77% 30.39 in 10.0 mi Calm Calm - N/A   Clear
5:33 PM -11.2 °F - -16.6 °F 77% 30.39 in 10.0 mi Calm Calm - N/A   Clear
5:53 PM -14.8 °F - -18.4 °F 84% 30.40 in 10.0 mi Calm Calm - N/A   Clear
6:13 PM -16.6 °F - -20.2 °F 84% 30.39 in 10.0 mi Calm Calm - N/A   Clear
6:33 PM -18.4 °F - -22.0 °F 84% 30.38 in 10.0 mi Calm Calm - N/A   Clear
6:53 PM -16.6 °F - -20.2 °F 84% 30.38 in 10.0 mi Calm Calm - N/A   Clear
7:13 PM -18.4 °F - -23.8 °F 76% 30.39 in 10.0 mi Calm Calm - N/A   Clear
7:33 PM -20.2 °F - -25.6 °F 76% 30.39 in 10.0 mi Calm Calm - N/A   Clear
7:53 PM -20.2 °F - -25.6 °F 76% 30.38 in 10.0 mi Calm Calm - N/A   Clear
8:13 PM -20.2 °F - -25.6 °F 76% 30.38 in 10.0 mi Calm Calm - N/A   Clear
8:33 PM -20.2 °F - -25.6 °F 76% 30.38 in 7.0 mi Calm Calm - N/A   Clear
8:53 PM -22.0 °F - -27.4 °F 76% 30.37 in 10.0 mi Calm Calm - N/A   Clear
9:11 PM -23.8 °F - -27.4 °F 83% 30.38 in 10.0 mi Calm Calm - N/A   Clear
9:33 PM -25.6 °F - -29.2 °F 83% 30.37 in 10.0 mi Calm Calm - N/A   Clear
9:53 PM -23.8 °F - -29.2 °F 76% 30.36 in 10.0 mi Calm Calm - N/A   Clear
10:13 PM -25.6 °F - -29.2 °F 83% 30.36 in 10.0 mi Calm Calm - N/A   Clear
10:32 PM -25.6 °F - -31.0 °F 76% 30.36 in 10.0 mi Calm Calm - N/A   Clear
10:53 PM -25.6 °F - -32.8 °F 69% 30.35 in 10.0 mi Calm Calm - N/A   Clear
11:13 PM -25.6 °F - -32.8 °F 69% 30.36 in 10.0 mi Calm Calm - N/A   Clear
11:32 PM -27.4 °F - -32.8 °F 75% 30.35 in 10.0 mi Calm Calm - N/A   Clear
11:53 PM -27.4 °F - -32.8 °F 75% 30.35 in 10.0 mi Calm Calm - N/A   Clear